Regional Weather Roundup
Issued by NWS

Home | Current Version | Previous Version | Graphics & Text | Print | Product List | Glossary On
Versions: 1 2 3 4 5 6 7 8 9 10 11 12 13 14 15 16 17 18 19 20 21 22 23 24 25 26 27 28 29 30 31 32 33 34 35 36 37 38 39 40 41 42 43 44 45 46 47 48 49 50
000
ASUS43 KDMX 261907
RWRIA

WEATHER ROUNDUP FOR IOWA
NATIONAL WEATHER SERVICE DES MOINES IA
100 PM CST FRI DEC 26 2014

NOTE: "FAIR" INDICATES FEW OR NO CLOUDS BELOW 12,000 FEET WITH NO
SIGNIFICANT WEATHER AND/OR OBSTRUCTIONS TO VISIBILITY.

* - THESE STATIONS ARE NOT NWS STATIONS...THUS NOT UNDER NWS
QUALITY CONTROL.  THEY ALSO DO NOT REPORT WEATHER SUCH
AS PRECIPITATION OR FOG.

IAZ001>003-012>014-020>022-031>034-043>046-262000-
   NORTHWEST IOWA

CITY           SKY/WX    TMP DP  RH WIND       PRES   REMARKS
CARROLL *      CLOUDY    32  32 100 N17       29.94F FOG     WCI  21
CHEROKEE *     CLOUDY    32  30  93 N13G20    29.99S WCI  22
DENISON *      CLOUDY    32  32 100 N13       29.95F FOG     WCI  22
LE MARS *      CLOUDY    32  28  86 N15       30.00F WCI  22
ORANGE CITY *  CLOUDY    30  27  86 N9G17     29.99F WCI  22
SHELDON *      CLOUDY    28  28 100 N21       29.97F WCI  15
SIOUX CITY     CLOUDY    33  27  78 N14       30.00F WCI  23
SPENCER        CLOUDY    31  27  85 N16       29.97F WCI  20
STORM LAKE *   CLOUDY    30  30 100 N15       29.97S WCI  19
$$

IAZ055>058-069>071-079>083-090>094-262000-
   SOUTHWEST IOWA

CITY           SKY/WX    TMP DP  RH WIND       PRES   REMARKS
ATLANTIC *     CLOUDY    34  34 100 N13       29.95S FOG     WCI  25
AUDUBON *      CLOUDY    32  28  86 N12       29.95F FOG     WCI  23
CLARINDA *     CLOUDY    34  32  93 N12       29.95F WCI  25
COUNCIL BLFS * CLOUDY    32  32 100 N13G18    29.94F WCI  22
CRESTON *      FOG       32  32 100 N13       29.93F VSB 1/2 WCI  22
HARLAN  *      CLOUDY    34  34 100 NE13G18   29.98F WCI  25
LAMONI           N/A     42  33  70 N3        29.91F
RED OAK *      CLOUDY    36  32  87 NE13      29.95F FOG     WCI  27
SHENANDOAH *   CLOUDY    36  34  93 NE15      29.95F WCI  26
$$

IAZ047>049-059>061-072>074-084-262000-
   CENTRAL IOWA

CITY           SKY/WX    TMP DP  RH WIND       PRES   REMARKS
AMES           CLOUDY    33  31  92 N10       29.95F FOG     WCI  25
ANKENY *       CLOUDY    34  32  93 NW12      29.95F FOG     WCI  25
CHARITON *     SUNNY     39  34  81 NW6       29.93F WCI  35
DES MOINES     CLOUDY    34  31  88 N7        29.95F FOG     WCI  28
GRINNELL*        N/A     41  34  75 W6        29.94R
KNOXVILLE *    SUNNY     39  34  81 NW9       29.92F WCI  33
MARSHALLTOWN   CLOUDY    34  32  92 NW10      29.92F WCI  26
PELLA *          N/A     41  34  75 W6        29.94F
PERRY *        CLOUDY    34  34 100 N15       29.94F FOG     WCI  24
$$

IAZ004>006-015-016-023>025-035-036-262000-
   NORTH CENTRAL IOWA

CITY           SKY/WX    TMP DP  RH WIND       PRES   REMARKS
ALGONA *       CLOUDY    32  32 100 N13G22    29.96F WCI  22
CLARION *      CLOUDY    32  32 100 N15       29.95S FOG     WCI  22
ESTHERVILLE    CLOUDY    30  27  88 N17       29.98F WCI  18
FORT DODGE *   CLOUDY    32  28  86 N10       29.98R WCI  24
MASON CITY     CLOUDY    33  32  96 N10       29.96S FOG     WCI  25
FOREST CITY *  CLOUDY    32  32 100 N14       29.95S FOG     WCI  22
IOWA FALLS *   CLOUDY    32  32 100 N9        29.95S FOG     WCI  24
$$

IAZ007>011-017>019-026>030-037>042-050>054-066-262000-
   NORTHEAST IOWA

CITY           SKY/WX    TMP DP  RH WIND       PRES   REMARKS
CEDAR RAPIDS     N/A     44  35  70 SW8       29.92F
CHARLES CITY * CLOUDY    32  32 100 N10       29.94S FOG     WCI  24
CLINTON *        N/A     48  36  61 SW13      29.98S
DECORAH *      SUNNY     41  34  75 N5        29.90S
DUBUQUE          N/A     43  34  70 W9        29.93S
MONTICELLO *   SUNNY     45  36  70 SW7       29.93F
OELWEIN *      SUNNY     41  34  75 SW5       29.92S
WATERLOO         N/A     41  33  73 N6        29.93S
$$

IAZ064-065-067-068-078-262000-
   EAST CENTRAL IOWA

CITY           SKY/WX    TMP DP  RH WIND       PRES   REMARKS
DAVENPORT        N/A     50  36  58 SW12      29.95F
IOWA CITY        N/A     47  37  68 SW9       29.95F
MT. PLEASANT *   N/A     50  39  66 SW10      29.95F
MUSCATINE *    SUNNY     52  37  58 SW12      29.95F
QUAD CITIES      N/A     50  37  61 SW10      29.95F
$$

IAZ062-063-075>077-085>089-095>099-262000-
   SOUTHEAST IOWA

CITY           SKY/WX    TMP DP  RH WIND       PRES   REMARKS
BURLINGTON       N/A     53  40  61 SW14      29.95F
FAIRFIELD *    SUNNY     48  37  66 SW8G16    29.93F
FORT MADISON *   N/A     54  43  66 SW10      29.96F
KEOKUK *       SUNNY     54  41  62 SW12      29.95F
OSKALOOSA *    PTSUNNY   46  36  66 W8        29.93F
CENTERVILLE *  SUNNY     46  39  76 SW8       29.93F
OTTUMWA        CLOUDY    48  36  63 SW9       29.92F
WASHINGTON *   SUNNY     50  39  66 SW10      29.93F
$$

ABBREVIATIONS USED IN REMARKS
   TC - TEMPERATURES IN CELSIUS
  WCI - WIND CHILL INDEX
   HX - HEAT INDEX
  VSB - VISIBILITY
$$




USA.gov is the U.S. government's official web portal to all federal, state and local government web resources and services.